This is the latest recevied weather packets stored in our database for station/object KE5OYL. If no packets are shown the sender has not sent any weather packets the latest 10 day(s).
| Time | Temp. | Humidity | Pressure | Rain* | Wind** | Luminosity | Snow |
|---|---|---|---|---|---|---|---|
| 1777826957 | 24.44° C | 41% | 1021.8 hPa | 0 mm | - | 735 W/m² | - |
| 1777826655 | 24.44° C | 42% | 1021.9 hPa | 0 mm | - | 726 W/m² | - |
| 1777826351 | 23.89° C | 43% | 1022 hPa | 0 mm | - | 718 W/m² | - |
| 1777826049 | 23.89° C | 44% | 1022.1 hPa | 0 mm | - | 708 W/m² | - |
| 1777825746 | 23.89° C | 44% | 1021.9 hPa | 0 mm | - | 698 W/m² | - |
| 1777825444 | 24.44° C | 45% | 1021.9 hPa | 0 mm | - | 691 W/m² | - |
| 1777825140 | 23.33° C | 46% | 1022.2 hPa | 0 mm | - | 680 W/m² | - |
| 1777824836 | 23.33° C | 48% | 1022.1 hPa | 0 mm | - | 673 W/m² | - |
| 1777824533 | 22.78° C | 48% | 1022.1 hPa | 0 mm | - | 660 W/m² | - |
| 1777824230 | 23.89° C | 46% | 1022.4 hPa | 0 mm | - | 649 W/m² | - |
| 1777823925 | 23.33° C | 46% | 1022.2 hPa | 0 mm | - | 635 W/m² | - |
| 1777823623 | 22.78° C | 48% | 1022.1 hPa | 0 mm | - | 624 W/m² | - |
| 1777823320 | 22.22° C | 48% | 1022.1 hPa | 0 mm | - | 612 W/m² | - |
| 1777823018 | 22.78° C | 48% | 1022.2 hPa | 0 mm | - | 600 W/m² | - |
| 1777822716 | 22.22° C | 48% | 1022.4 hPa | 0 mm | - | 586 W/m² | - |
| 1777822413 | 22.22° C | 49% | 1022.2 hPa | 0 mm | - | 572 W/m² | - |
| 1777822111 | 22.78° C | 48% | 1022.2 hPa | 0 mm | - | 556 W/m² | - |
| 1777821808 | 22.22° C | 48% | 1022.1 hPa | 0 mm | - | 543 W/m² | - |
| 1777821505 | 21.67° C | 48% | 1022.2 hPa | 0 mm | - | 525 W/m² | - |
| 1777821203 | 22.22° C | 48% | 1022.1 hPa | 0 mm | - | 516 W/m² | - |
| 1777820900 | 22.22° C | 48% | 1022.2 hPa | 0 mm | - | 500 W/m² | - |
| 1777820595 | 21.67° C | 48% | 1022.2 hPa | 0 mm | - | 483 W/m² | - |
| 1777820292 | 21.67° C | 49% | 1021.8 hPa | 0 mm | - | 468 W/m² | - |
| 1777819990 | 21.67° C | 49% | 1022.1 hPa | 0 mm | - | 452 W/m² | - |
| 1777819687 | 21.67° C | 48% | 1022.1 hPa | 0 mm | - | 437 W/m² | - |
* Rain latest hour (hover to see other rain measurements)
** Current wind speed in m/s (hover to see current wind gust speed)